sat.trackr.live / text

‹ back to catalog

STARLINK-6136

NORAD 56540 · 2023-065AP

PAYLOAD ACTIVE UNKNOWN

§ Identity

Operator
Country
US
Launch date
2023-05-14
Launch site
AFETR
Launch vehicle
Mass (kg)
RCS (m²)

Purposes: comms

External: N2YO · Heavens-Above · Gunter

§ Orbital elements

Epoch: 2026-09-20T05:20:33.043488Z

Period
94.27 min
Inclination
43.0020°
Eccentricity
0.0000656
Mean motion
15.27574891 rev/d
Perigee alt
482.6 km
Apogee alt
483.5 km
Semi-major
6,861.2 km
B*
1.9473e-6
RAAN
208.3578°
Arg perigee
269.2594°
Mean anomaly
90.8183°
Rev number
18,618

§ Raw data

STARLINK-61361 56540U 23065AP  26263.22260467 -.00000208  00000+0  19473-5 0  99932 56540  43.0020 208.3578 0000656 269.2594  90.8183 15.27574891186180

JSON: /api/v1/satellites/56540 · /tle

For live sub-satellite position, see the globe view (requires WebGL).

§ Visibility from observer

Set your observer location to see the next 7 days of passes ≥ 10°. The values pass through the URL so the page stays shareable.

No JS? Fill the form by hand. The geolocation button needs JavaScript.